Flag for Canada Weather past 2 weeks in Halton Hills, Ontario, Canada

61 °F

Partly sunny.

Feels Like: 61 °F
Forecast: 41 / 55 °F
Wind: 24 mph from Northwest

Location: Toronto Pearson International Airport

Current Time: Oct 9, 2015 at 12:44:19 PM

Latest Report: Oct 9, 2015 at 12:00 PM

Visibility: 15 mi

Pressure: 29.83 "Hg

Humidity: 72%

Dew point: 52 °F

Location of Halton HillsLocation

Historic Weather in Halton Hills — Graph


Halton Hills temperature yesterday

Maximum temperature yesterday: 59 °F (at 3:00 PM)
Minimum temperature yesterday: 46 °F (at 3:00 AM)
Average temperature yesterday: 52 °F

Past Weeks' High & Low Weather Summary

High73 °F (Sep 24, 1:00 PM)100% (Sep 27, 5:00 AM)30.47 "Hg (Sep 27, 5:00 AM)
Low41 °F (Oct 1, 6:00 AM)36% (Oct 1, 3:00 PM)29.78 "Hg (Oct 9, 6:00 AM)
Average57 °F71%30.21 "Hg
* Reported Sep 24 11:00 AM — Oct 9 11:00 AM, Halton Hills, Weather by CustomWeather, © 2015

Note: Actual official high and low records may vary slightly from our data, if they occured in-between our weather recording intervals... More about our weather records


Halton Hills weather history for previous 24 hours

Time TempWeatherWind HumidityBarometerVisibility
11:00 AM
Fri, Oct 9
63 °FMostly cloudy.17 mph77%29.81 "Hg15 mi
10:00 AM61 °FFog.12 mph83%29.81 "Hg6 mi
9:00 AM57 °FFog.8 mph94%29.79 "Hg6 mi
8:00 AM54 °FFog.8 mph94%29.79 "Hg6 mi
7:00 AM54 °FFog.5 mph94%29.78 "Hg4 mi
6:00 AM54 °FFog.5 mph94%29.78 "Hg5 mi
5:00 AM54 °FMostly cloudy.2 mph94%29.79 "Hg8 mi
4:00 AM54 °FLight rain. Mostly cloudy.2 mph94%29.79 "Hg8 mi
3:00 AM52 °FLight rain. Mostly cloudy.No wind94%29.83 "Hg10 mi
2:00 AM50 °FLight rain. Mostly cloudy.5 mph94%29.85 "Hg12 mi
1:00 AM50 °FLight rain. Mostly cloudy.8 mph94%29.88 "Hg10 mi
12:00 AM52 °FLight rain. Overcast.8 mph94%29.90 "Hg12 mi
11:00 PM
Thu, Oct 8
52 °FLight rain. Overcast.7 mph94%29.95 "Hg10 mi
10:00 PM52 °FLight rain. Mostly cloudy.9 mph88%29.97 "Hg10 mi
9:00 PM54 °FLight rain. Mostly cloudy.9 mph77%29.99 "Hg12 mi
8:00 PM54 °FPartly cloudy.7 mph58%30.01 "Hg15 mi
7:00 PM54 °FBroken clouds.9 mph63%30.04 "Hg15 mi
6:00 PM55 °FBroken clouds.12 mph63%30.05 "Hg15 mi
5:00 PM57 °FPartly sunny.10 mph59%30.06 "Hg15 mi
4:00 PM57 °FPartly sunny.6 mph63%30.08 "Hg15 mi
3:00 PM59 °FPartly sunny.8 mph63%30.09 "Hg15 mi
2:00 PM57 °FBroken clouds.10 mph67%30.12 "Hg15 mi
1:00 PM57 °FBroken clouds.10 mph63%30.14 "Hg15 mi
12:00 PM55 °FPartly sunny.9 mph67%30.18 "Hg15 mi
Weather by CustomWeather, © 2015

See weather overviewHow to use our weather pages